Regional Weather Roundup
Issued by NWS

Home | Current Version | Previous Version | Graphics & Text | Print | Product List | Glossary Off
Versions: 1 2 3 4 5 6 7 8 9 10 11 12 13 14 15 16 17 18 19 20 21 22 23 24 25 26 27 28 29 30 31 32 33 34 35 36 37 38 39 40 41 42 43 44 45 46 47 48 49 50

000
ASUS43 KDTX 261301
RWRMI
MICHIGAN HOURLY REGIONAL WEATHER ROUNDUP
NATIONAL WEATHER SERVICE DETROIT/PONTIAC MI
900 AM EDT THU MAY 26 2016

NOTE: "FAIR" INDICATES FEW OR NO CLOUDS BELOW 12,000 FEET WITH NO
SIGNIFICANT WEATHER AND/OR OBSTRUCTION TO VISIBILITY.

MIZ047>049-052>055-059>063-066>070-074>076-081>083-261400-
SOUTHEAST LOWER MICHIGAN

CITY           SKY/WX    TMP DP  RH WIND       PRES   REMARKS
ADRIAN         PTSUNNY   72  64  76 SW10      30.00S
ALMA           MOSUNNY   69  65  88 SW8       29.95F
ANN ARBOR      MOSUNNY   72  65  78 S6        29.99S
BAD AXE        CLOUDY    66  62  87 S3        29.97S
CARO           PTSUNNY   70  64  79 S6        29.96S
DETROIT CITY   PTSUNNY   73  63  70 S7        29.99S
DETROIT        CLOUDY    71  64  78 SW9       30.00R
FLINT          CLOUDY    74  63  68 SW8       29.97R
GROSSE ILE     CLOUDY    70  64  83 S6        29.99R
HILLSDALE      MOSUNNY   70  63  80 SW10      30.00S
HOWELL         SUNNY     71  65  81 S7        29.98S

CITY           SKY/WX    TMP DP  RH WIND       PRES   REMARKS
JACKSON        SUNNY     71  64  78 S9        29.98F
LAMBERTVILLE   MOSUNNY   72  64  74 W6        30.01R
LANSING        CLOUDY    71  64  78 S13       29.97S
LAPEER         FAIR      72  60  65 SW5       29.98S
MASON          SUNNY     70  64  82 S7        29.98S
MONROE         CLOUDY    71  65  81 SW8       30.00R
PONTIAC        MOSUNNY   71  63  75 SW7       29.98R
PORT HOPE        N/A     67  62  84 SE3       29.95S
PORT HURON     CLOUDY    68  63  83 S5        29.99R
TRI CITIES     SUNNY     71  64  78 S9        29.95S
MIDLAND        FAIR      69  64  86 S8        29.94S
TROY           MOSUNNY   73  64  73 SW7       30.00S
SAGINAW HB     MOSUNNY   70  63  78 S9        29.95S
$$
MIZ043>046-050>051-056>058-064>065-071>073-077>080-261400-
SOUTHWEST LOWER MICHIGAN

CITY           SKY/WX    TMP DP  RH WIND       PRES   REMARKS
BATTLE CREEK   MOSUNNY   69  65  86 SW10      29.98S
BENTON HARBOR  CLOUDY    70  66  87 S8        29.94F
BIG RAPIDS     CLOUDY    66  65  97 SW6       29.93R
COLDWATER      MOSUNNY   72  65  78 SW12      29.99S
FREMONT        CLOUDY    67  67 100 S8        29.92S
HOLLAND        MOSUNNY   71  67  87 S13       29.94S
GRAND RAPIDS   CLOUDY    72  65  78 SW13      29.95R
IONIA          FAIR      70  64  81 SW9       29.95S
KALAMAZOO      MOSUNNY   71  65  81 SW10      29.97S
LUDINGTON      CLOUDY    66  64  94 S13       29.90R
MARSHALL       SUNNY     71  66  84 SW8       29.99R
MOUNT PLEASANT MOSUNNY   68  65  89 S7        29.93F
MUSKEGON       PTSUNNY   70  63  78 S20G28    29.92S
SOUTH HAVEN    PTSUNNY   69  67  94 SW8       29.95F FOG
$$
MIZ016>042-261400-
NORTHERN LOWER MICHIGAN

CITY           SKY/WX    TMP DP  RH WIND       PRES   REMARKS
ALPENA         CLOUDY    61  56  83 S6        29.94R
BEAVER ISLAND  CLOUDY    64  62  94 SW14      29.87S
BELLAIRE       CLOUDY    69  62  77 S6        29.89S
CADILLAC       CLOUDY    64  63  94 S12       29.92S
CHARLEVOIX     CLOUDY    66  63  88 S5        29.91R
FRANKFORT      PTSUNNY   67  64  90 S7        29.89R
GAYLORD        MOSUNNY   67  61  81 SW10      29.91S
GRAYLING       PTSUNNY   68  63  83 SW8       29.93S
HARBOR SPRINGS CLOUDY    63  60  91 CALM      29.89R
HOUGHTON LAKE  CLOUDY    67  61  81 S8        29.93S
MANISTEE       CLOUDY    66  61  82 S8        29.91R
OSCODA         MOSUNNY   65  57  76 CALM      29.94S
PELLSTON       CLOUDY    62  59  90 SE5       29.89S
ROGERS CITY    PTSUNNY   62  56  82 S3        29.92R
TRAVERSE CITY  CLOUDY    70  63  78 VRB7      29.87S
$$
MIZ007>008-015-261400-
EASTERN UPPER MICHIGAN

CITY           SKY/WX    TMP DP  RH WIND       PRES   REMARKS
KINROSS          N/A     59  55  88 SE13      29.90R
MACKINAC ISLAN CLOUDY    50  50  99 E9G17     29.89S
NEWBERRY       CLOUDY    57  56  97 SE9       29.86S FOG
S. S. MARIE    CLOUDY    60  54  80 E9        29.89F
MUNISING         N/A     62  59  90 S6        29.82R
$$
MIZ004>006-011>014-085-261400-
CENTRAL UPPER MICHIGAN

CITY           SKY/WX    TMP DP  RH WIND       PRES   REMARKS
MANISTIQUE     FOG       54  54  97 S8        29.84F VSB 1/4
ESCANABA       CLOUDY    57  57 100 SW5       29.83F VSB 1/4
MENOMINEE      CLOUDY    59  58  96 S5        29.87R FOG
SAWYER-GWINN   CLOUDY    59  59 100 SW7       29.83R FOG
$$
MIZ001>003-009>011-084-261400-
WESTERN UPPER MICHIGAN

CITY           SKY/WX    TMP DP  RH WIND       PRES   REMARKS
IRON MOUNTAIN  CLOUDY    66  60  81 VRB3      29.82F
HOUGHTON       FOG       54  53  97 W3        29.81S VSB 1/2
COPPER HARBOR    N/A     45  44  97 CALM      29.81R
IRONWOOD       CLOUDY    59  57  94 E5        29.79F
$$

ABBREVIATIONS USED IN REMARKS
   TC - TEMPERATURE IN CELSIUS
  WCI - WIND CHILL INDEX
   HX - HEAT INDEX
  VSB - VISIBILITY





USA.gov is the U.S. government's official web portal to all federal, state and local government web resources and services.